GKELT KOPF-SPJC

Flight info

Callsign GKELT
Flight time 5h 30m
Altitude 37000
Route MAYNR3 FUNDI UM335 JABIR/N0449F390 UM335 ARNAL UL465 TBG UL780 TRU UV1 ATATU
Aircraft A21N/M-SDE3FGHIRWY/LB1

Departure

Time 2026-05-07 16:00
Airport Miami-Opa Locka Executive Airport (KOPF)

Arrival

Time 2026-05-07 21:30
Airport Jorge Chávez International Airport (SPJC)
Time Latitude Longitude Altitude Speed Heading
2026-05-07 15:55 25.91137 -80.27506 9 ft 13 kts 268°
2026-05-07 15:56 25.91133 -80.27618 9 ft 15 kts 268°
2026-05-07 15:56 25.91128 -80.27739 9 ft 16 kts 266°
2026-05-07 15:56 25.91120 -80.27868 9 ft 17 kts 266°
2026-05-07 15:56 25.91110 -80.28002 9 ft 17 kts 265°
2026-05-07 15:57 25.91104 -80.28142 9 ft 18 kts 269°
2026-05-07 15:57 25.91099 -80.28289 9 ft 19 kts 265°
2026-05-07 15:57 25.91090 -80.28438 9 ft 19 kts 268°
2026-05-07 15:57 25.91082 -80.28589 11 ft 19 kts 268°
2026-05-07 15:58 25.91099 -80.28711 12 ft 11 kts 299°
2026-05-07 15:58 25.91133 -80.28796 12 ft 12 kts 290°
2026-05-07 15:58 25.91207 -80.28841 12 ft 13 kts 353°
2026-05-07 15:58 25.91267 -80.28809 12 ft 10 kts 82°
2026-05-07 15:59 25.91267 -80.28799 12 ft 0 kts 87°
2026-05-07 15:59 25.91267 -80.28796 12 ft 0 kts 87°
2026-05-07 15:59 25.91280 -80.28586 11 ft 77 kts 88°
2026-05-07 15:59 25.91323 -80.27624 25 ft 167 kts 88°
2026-05-07 16:00 25.91363 -80.26279 901 ft 180 kts 88°
2026-05-07 16:00 25.91169 -80.24947 2007 ft 186 kts 117°
2026-05-07 16:00 25.90256 -80.23929 2951 ft 202 kts 154°
2026-05-07 16:00 25.88855 -80.23634 3894 ft 222 kts 188°
2026-05-07 16:01 25.87387 -80.24287 4946 ft 242 kts 218°
2026-05-07 16:01 25.86177 -80.25677 6066 ft 262 kts 226°
2026-05-07 16:01 25.84674 -80.26879 7167 ft 280 kts 200°
2026-05-07 16:01 25.82788 -80.27452 8309 ft 286 kts 191°
2026-05-07 16:02 25.80837 -80.27919 9158 ft 292 kts 192°
2026-05-07 16:02 25.78871 -80.28464 9746 ft 296 kts 194°
2026-05-07 16:02 25.76865 -80.29118 10480 ft 304 kts 197°
2026-05-07 16:02 25.74824 -80.29850 11191 ft 317 kts 198°
2026-05-07 16:03 25.72726 -80.30653 11936 ft 327 kts 199°
2026-05-07 16:03 25.70563 -80.31511 12842 ft 332 kts 200°
2026-05-07 16:03 25.68421 -80.32378 13753 ft 336 kts 200°
2026-05-07 16:03 25.66227 -80.33276 14655 ft 340 kts 200°
2026-05-07 16:04 25.64002 -80.34196 15497 ft 346 kts 201°
2026-05-07 16:04 25.61738 -80.35132 16303 ft 352 kts 201°
2026-05-07 16:04 25.59440 -80.36082 17131 ft 357 kts 202°
2026-05-07 16:04 25.57105 -80.37046 17981 ft 362 kts 202°
2026-05-07 16:05 25.54749 -80.38021 18810 ft 366 kts 203°
2026-05-07 16:05 25.52371 -80.39005 19620 ft 369 kts 203°
2026-05-07 16:05 25.49971 -80.39997 20425 ft 373 kts 204°
2026-05-07 16:05 25.47551 -80.40997 21216 ft 375 kts 204°
2026-05-07 16:06 25.45113 -80.42004 21991 ft 378 kts 204°
2026-05-07 16:06 25.42655 -80.43019 22748 ft 380 kts 204°
2026-05-07 16:06 25.40178 -80.44041 23482 ft 383 kts 204°
2026-05-07 16:06 25.37694 -80.45067 24180 ft 385 kts 205°
2026-05-07 16:07 25.35218 -80.46088 24824 ft 388 kts 205°
2026-05-07 16:07 25.32661 -80.47144 25454 ft 392 kts 205°
2026-05-07 16:07 25.30109 -80.48195 26056 ft 395 kts 205°
2026-05-07 16:07 25.27539 -80.49253 26636 ft 398 kts 205°
2026-05-07 16:08 25.24947 -80.50320 27197 ft 401 kts 205°
2026-05-07 16:08 25.22336 -80.51399 27739 ft 404 kts 204°
2026-05-07 16:08 25.19729 -80.52473 28245 ft 407 kts 204°
2026-05-07 16:08 25.17073 -80.53562 28730 ft 410 kts 204°
2026-05-07 16:09 25.14401 -80.54658 29222 ft 413 kts 204°
2026-05-07 16:09 25.11711 -80.55759 29709 ft 415 kts 204°
2026-05-07 16:09 25.09011 -80.56866 30177 ft 417 kts 204°
2026-05-07 16:09 25.06288 -80.57982 30616 ft 420 kts 204°
2026-05-07 16:10 25.03541 -80.59108 31026 ft 423 kts 204°
2026-05-07 16:10 25.00778 -80.60239 31419 ft 426 kts 204°
2026-05-07 16:10 24.98007 -80.61374 31797 ft 429 kts 204°
2026-05-07 16:10 24.95214 -80.62517 32161 ft 432 kts 204°
2026-05-07 16:11 24.92390 -80.63673 32513 ft 435 kts 204°
2026-05-07 16:11 24.89556 -80.64831 32930 ft 435 kts 204°
2026-05-07 16:11 24.86762 -80.65973 33399 ft 434 kts 204°
2026-05-07 16:11 24.83950 -80.67128 33855 ft 433 kts 204°
2026-05-07 16:12 24.81130 -80.68285 34284 ft 433 kts 204°
2026-05-07 16:12 24.78313 -80.69439 34691 ft 432 kts 204°
2026-05-07 16:12 24.75515 -80.70583 35082 ft 432 kts 204°
2026-05-07 16:12 24.72707 -80.71732 35450 ft 432 kts 204°
2026-05-07 16:13 24.69896 -80.72881 35746 ft 433 kts 204°
2026-05-07 16:13 24.67107 -80.74017 36014 ft 435 kts 204°
2026-05-07 16:13 24.64239 -80.75185 36288 ft 437 kts 204°
2026-05-07 16:13 24.61400 -80.76342 36553 ft 438 kts 204°
2026-05-07 16:14 24.58553 -80.77500 36803 ft 439 kts 204°
2026-05-07 16:14 24.55688 -80.78664 37028 ft 441 kts 204°
2026-05-07 16:14 24.52819 -80.79829 37087 ft 443 kts 204°
2026-05-07 16:15 24.47072 -80.82162 37099 ft 444 kts 204°
2026-05-07 16:15 24.41281 -80.84510 37102 ft 444 kts 204°
2026-05-07 16:16 24.35539 -80.86838 37102 ft 444 kts 204°
2026-05-07 16:16 24.29763 -80.89177 37103 ft 444 kts 204°
2026-05-07 16:17 24.23990 -80.91514 37102 ft 444 kts 203°
2026-05-07 16:17 24.18194 -80.93861 37102 ft 446 kts 203°
2026-05-07 16:18 24.12386 -80.96205 37103 ft 446 kts 203°
2026-05-07 16:18 24.06554 -80.98487 37103 ft 447 kts 200°
2026-05-07 16:19 24.00518 -81.00090 37103 ft 451 kts 192°
2026-05-07 16:19 23.94282 -81.00806 37103 ft 454 kts 185°
2026-05-07 16:20 23.87976 -81.00693 37102 ft 455 kts 180°
2026-05-07 16:20 23.81679 -81.00435 37141 ft 455 kts 181°
2026-05-07 16:21 23.75384 -81.00139 37102 ft 455 kts 180°
2026-05-07 16:21 23.69105 -80.99863 37095 ft 454 kts 180°
2026-05-07 16:22 23.62815 -80.99597 37083 ft 453 kts 180°
2026-05-07 16:22 23.56570 -80.99336 37080 ft 454 kts 180°
2026-05-07 16:23 23.50264 -80.99075 37080 ft 454 kts 180°
2026-05-07 16:23 23.43979 -80.98814 37080 ft 454 kts 180°
2026-05-07 16:24 23.37704 -80.98556 37080 ft 454 kts 180°
2026-05-07 16:24 23.31412 -80.98296 37080 ft 454 kts 180°
2026-05-07 16:25 23.25123 -80.98032 37080 ft 454 kts 180°
2026-05-07 16:25 23.18854 -80.97765 37080 ft 453 kts 180°
2026-05-07 16:26 23.12598 -80.97503 37079 ft 453 kts 180°
2026-05-07 16:26 23.06296 -80.97235 37080 ft 454 kts 180°
2026-05-07 16:27 23.00012 -80.96961 37080 ft 454 kts 180°
2026-05-07 16:27 22.93695 -80.96705 37080 ft 454 kts 180°
2026-05-07 16:28 22.87406 -80.96457 37079 ft 454 kts 180°
2026-05-07 16:28 22.81114 -80.96210 37080 ft 454 kts 180°
2026-05-07 16:29 22.74847 -80.95964 37080 ft 454 kts 180°
2026-05-07 16:29 22.68555 -80.95724 37080 ft 453 kts 180°
2026-05-07 16:30 22.62244 -80.95474 37080 ft 453 kts 180°
2026-05-07 16:30 22.55976 -80.95228 37080 ft 453 kts 180°
2026-05-07 16:31 22.49712 -80.94983 37080 ft 453 kts 180°
2026-05-07 16:31 22.43448 -80.94739 37080 ft 453 kts 180°
2026-05-07 16:32 22.37143 -80.94493 37080 ft 453 kts 180°
2026-05-07 16:32 22.30879 -80.94249 37080 ft 453 kts 180°
2026-05-07 16:33 22.24578 -80.94004 37080 ft 454 kts 180°
2026-05-07 16:33 22.18320 -80.93765 37079 ft 455 kts 179°
2026-05-07 16:34 22.12006 -80.93518 37080 ft 455 kts 179°
2026-05-07 16:34 22.05721 -80.93273 37080 ft 455 kts 179°
2026-05-07 16:35 21.99401 -80.93028 37080 ft 455 kts 179°
2026-05-07 16:35 21.93116 -80.92787 37085 ft 455 kts 179°
2026-05-07 16:36 21.86830 -80.92534 37109 ft 455 kts 179°
2026-05-07 16:36 21.80490 -80.92293 37090 ft 455 kts 179°
2026-05-07 16:37 21.74207 -80.92055 37081 ft 455 kts 179°
2026-05-07 16:37 21.67886 -80.91815 37090 ft 457 kts 179°
2026-05-07 16:38 21.61560 -80.91573 37099 ft 457 kts 179°
2026-05-07 16:38 21.55206 -80.91331 37103 ft 457 kts 179°
2026-05-07 16:39 21.48879 -80.91086 37104 ft 457 kts 179°
2026-05-07 16:39 21.42557 -80.90836 37104 ft 457 kts 179°
2026-05-07 16:40 21.36235 -80.90589 37104 ft 457 kts 179°
2026-05-07 16:40 21.29901 -80.90345 37104 ft 457 kts 179°
2026-05-07 16:41 21.23565 -80.90101 37103 ft 458 kts 179°
2026-05-07 16:41 21.17205 -80.89857 37104 ft 460 kts 179°
2026-05-07 16:42 21.10800 -80.89613 37105 ft 460 kts 179°
2026-05-07 16:42 21.04461 -80.89359 37105 ft 460 kts 179°
2026-05-07 16:43 20.98089 -80.89071 37104 ft 460 kts 179°
2026-05-07 16:43 20.91670 -80.88783 37104 ft 461 kts 179°
2026-05-07 16:44 20.85316 -80.88502 37104 ft 461 kts 179°
2026-05-07 16:44 20.78949 -80.88224 37104 ft 461 kts 179°
2026-05-07 16:45 20.72570 -80.87943 37103 ft 461 kts 179°
2026-05-07 16:45 20.66163 -80.87662 37104 ft 460 kts 179°
2026-05-07 16:46 20.59811 -80.87386 37104 ft 460 kts 179°
2026-05-07 16:46 20.53406 -80.87108 37104 ft 460 kts 179°
2026-05-07 16:47 20.47034 -80.86830 37092 ft 460 kts 179°
2026-05-07 16:47 20.40707 -80.86555 37079 ft 460 kts 179°
2026-05-07 16:48 20.34330 -80.86278 37063 ft 460 kts 179°
2026-05-07 16:48 20.27969 -80.86002 37055 ft 460 kts 179°
2026-05-07 16:49 20.21574 -80.85722 37052 ft 460 kts 179°
2026-05-07 16:49 20.15247 -80.85450 37052 ft 459 kts 180°
2026-05-07 16:50 20.08884 -80.85177 37052 ft 459 kts 180°
2026-05-07 16:50 20.02508 -80.84902 37052 ft 459 kts 180°
2026-05-07 16:51 19.96136 -80.84611 37052 ft 459 kts 179°
2026-05-07 16:51 19.89803 -80.84298 37051 ft 459 kts 179°
2026-05-07 16:52 19.83449 -80.83989 37051 ft 459 kts 179°
2026-05-07 16:52 19.77112 -80.83684 37051 ft 459 kts 179°
2026-05-07 16:53 19.70727 -80.83381 37052 ft 459 kts 179°
2026-05-07 16:53 19.64388 -80.83076 37052 ft 459 kts 179°
2026-05-07 16:54 19.58018 -80.82768 37052 ft 459 kts 179°
2026-05-07 16:54 19.51637 -80.82462 37051 ft 459 kts 179°
2026-05-07 16:55 19.45314 -80.82160 37052 ft 459 kts 179°
2026-05-07 16:55 19.38960 -80.81858 37052 ft 459 kts 179°
2026-05-07 16:56 19.32587 -80.81556 37052 ft 459 kts 179°
2026-05-07 16:56 19.23069 -80.81100 37053 ft 459 kts 178°
2026-05-07 16:57 19.16716 -80.80795 37052 ft 459 kts 178°
2026-05-07 16:57 19.10371 -80.80489 37052 ft 459 kts 178°
2026-05-07 16:58 19.04013 -80.80186 37052 ft 459 kts 178°
2026-05-07 16:58 18.97641 -80.79882 37051 ft 459 kts 178°
2026-05-07 16:59 18.91325 -80.79582 37052 ft 459 kts 178°
2026-05-07 16:59 18.84942 -80.79280 37051 ft 459 kts 178°
2026-05-07 17:00 18.78585 -80.78979 37051 ft 458 kts 178°
2026-05-07 17:00 18.72263 -80.78683 37054 ft 458 kts 178°
2026-05-07 17:01 18.65917 -80.78387 37052 ft 460 kts 178°
2026-05-07 17:01 18.59532 -80.78082 37052 ft 459 kts 178°
2026-05-07 17:02 18.53182 -80.77779 37052 ft 459 kts 178°
2026-05-07 17:02 18.46838 -80.77479 37052 ft 459 kts 178°
2026-05-07 17:03 18.40458 -80.77177 37052 ft 459 kts 178°
2026-05-07 17:03 18.34114 -80.76886 37067 ft 459 kts 178°
2026-05-07 17:04 18.27770 -80.76585 37068 ft 459 kts 178°
2026-05-07 17:04 18.21423 -80.76282 37057 ft 459 kts 178°
2026-05-07 17:05 18.15038 -80.75980 37053 ft 459 kts 178°
2026-05-07 17:05 18.08693 -80.75685 37052 ft 459 kts 178°
2026-05-07 17:06 18.02372 -80.75390 37052 ft 458 kts 178°
2026-05-07 17:06 17.95989 -80.75091 37052 ft 458 kts 178°
2026-05-07 17:07 17.89690 -80.74794 37051 ft 458 kts 178°
2026-05-07 17:07 17.83316 -80.74496 37051 ft 458 kts 178°
2026-05-07 17:08 17.77015 -80.74204 37052 ft 458 kts 178°
2026-05-07 17:08 17.70649 -80.73907 37052 ft 458 kts 178°
2026-05-07 17:09 17.64333 -80.73612 37052 ft 457 kts 178°
2026-05-07 17:09 17.58001 -80.73315 37052 ft 457 kts 178°
2026-05-07 17:10 17.51681 -80.73017 37052 ft 457 kts 178°
2026-05-07 17:10 17.45326 -80.72720 37052 ft 457 kts 178°
2026-05-07 17:11 17.39008 -80.72424 37052 ft 457 kts 178°
2026-05-07 17:11 17.32686 -80.72129 37052 ft 457 kts 178°
2026-05-07 17:12 17.26351 -80.71836 37057 ft 457 kts 178°
2026-05-07 17:12 17.20029 -80.71538 37052 ft 457 kts 178°
2026-05-07 17:13 17.13677 -80.71237 37052 ft 457 kts 178°
2026-05-07 17:13 17.07358 -80.70940 37052 ft 457 kts 178°
2026-05-07 17:14 17.01032 -80.70644 37051 ft 457 kts 178°
2026-05-07 17:14 16.94719 -80.70351 37052 ft 457 kts 178°
2026-05-07 17:15 16.88398 -80.70058 37054 ft 457 kts 178°
2026-05-07 17:15 16.82054 -80.69769 37056 ft 456 kts 178°
2026-05-07 17:16 16.75743 -80.69480 37052 ft 456 kts 178°
2026-05-07 17:16 16.69440 -80.69192 37052 ft 457 kts 178°
2026-05-07 17:17 16.63079 -80.68900 37052 ft 457 kts 177°
2026-05-07 17:17 16.56749 -80.68605 37052 ft 457 kts 177°
2026-05-07 17:18 16.50441 -80.68312 37052 ft 457 kts 177°
2026-05-07 17:18 16.44118 -80.68019 37052 ft 457 kts 177°
2026-05-07 17:19 16.37806 -80.67727 37052 ft 457 kts 177°
2026-05-07 17:19 16.31492 -80.67436 37047 ft 457 kts 177°
2026-05-07 17:20 16.25155 -80.67143 37021 ft 456 kts 177°
2026-05-07 17:20 16.18848 -80.66854 37005 ft 456 kts 177°
2026-05-07 17:21 16.12513 -80.66563 36999 ft 456 kts 176°
2026-05-07 17:21 16.06210 -80.66271 36997 ft 456 kts 176°
2026-05-07 17:22 15.99866 -80.65978 36997 ft 456 kts 176°
2026-05-07 17:22 15.93567 -80.65688 36997 ft 456 kts 176°
2026-05-07 17:23 15.87264 -80.65398 36997 ft 456 kts 177°
2026-05-07 17:23 15.80945 -80.65110 36997 ft 456 kts 177°
2026-05-07 17:24 15.74610 -80.64820 36997 ft 456 kts 177°
2026-05-07 17:24 15.68294 -80.64529 36997 ft 456 kts 177°
2026-05-07 17:25 15.61988 -80.64239 36997 ft 455 kts 177°
2026-05-07 17:25 15.55686 -80.63952 36997 ft 456 kts 177°
2026-05-07 17:26 15.49409 -80.63665 36997 ft 455 kts 177°
2026-05-07 17:26 15.43096 -80.63376 36997 ft 455 kts 177°
2026-05-07 17:27 15.36794 -80.63088 36997 ft 455 kts 177°
2026-05-07 17:27 15.30502 -80.62801 36997 ft 455 kts 177°
2026-05-07 17:28 15.24202 -80.62513 36997 ft 455 kts 177°
2026-05-07 17:28 15.17891 -80.62225 36997 ft 455 kts 177°
2026-05-07 17:29 15.11565 -80.61937 37033 ft 455 kts 177°
2026-05-07 17:29 15.05302 -80.61646 37016 ft 455 kts 177°
2026-05-07 17:30 14.99017 -80.61193 37002 ft 455 kts 172°
2026-05-07 17:30 14.92761 -80.60177 36998 ft 455 kts 169°
2026-05-07 17:31 14.86535 -80.59094 36997 ft 455 kts 170°
2026-05-07 17:31 14.80313 -80.58025 37006 ft 455 kts 170°
2026-05-07 17:32 14.74103 -80.56961 36999 ft 454 kts 170°
2026-05-07 17:32 14.68959 -80.56081 36999 ft 455 kts 169°
2026-05-07 17:33 14.61669 -80.54830 36997 ft 455 kts 169°
2026-05-07 17:33 14.55437 -80.53761 36997 ft 455 kts 169°
2026-05-07 17:34 14.49218 -80.52695 36997 ft 455 kts 169°
2026-05-07 17:34 14.43007 -80.51630 36997 ft 455 kts 169°
2026-05-07 17:35 14.36777 -80.50564 36997 ft 455 kts 169°
2026-05-07 17:35 14.30572 -80.49502 36997 ft 455 kts 169°
2026-05-07 17:36 14.24363 -80.48440 36997 ft 455 kts 169°
2026-05-07 17:36 14.18124 -80.47374 36997 ft 455 kts 169°
2026-05-07 17:37 14.11917 -80.46313 36997 ft 455 kts 169°
2026-05-07 17:37 14.05714 -80.45253 36997 ft 455 kts 169°
2026-05-07 17:38 13.99508 -80.44194 36997 ft 454 kts 169°
2026-05-07 17:38 13.93259 -80.43129 37016 ft 454 kts 169°
2026-05-07 17:39 13.87055 -80.42069 37001 ft 454 kts 169°
2026-05-07 17:39 13.80840 -80.41018 36998 ft 454 kts 169°
2026-05-07 17:40 13.74638 -80.39966 36997 ft 454 kts 169°
2026-05-07 17:40 13.68408 -80.38908 37003 ft 454 kts 169°
2026-05-07 17:41 13.62211 -80.37850 36998 ft 454 kts 169°
2026-05-07 17:41 13.55986 -80.36788 36997 ft 454 kts 169°
2026-05-07 17:42 13.49822 -80.35739 36997 ft 454 kts 169°
2026-05-07 17:42 13.43619 -80.34682 36997 ft 454 kts 169°
2026-05-07 17:43 13.37417 -80.33600 36997 ft 454 kts 169°
2026-05-07 17:43 13.31188 -80.32526 36997 ft 454 kts 169°
2026-05-07 17:44 13.24981 -80.31468 36997 ft 454 kts 169°
2026-05-07 17:44 13.18789 -80.30419 36997 ft 453 kts 169°
2026-05-07 17:45 13.12588 -80.29367 36997 ft 453 kts 169°
2026-05-07 17:45 13.06392 -80.28317 36997 ft 453 kts 169°
2026-05-07 17:46 13.00193 -80.27268 36997 ft 453 kts 169°
2026-05-07 17:46 12.94008 -80.26221 36997 ft 453 kts 169°
2026-05-07 17:47 12.87787 -80.25171 36995 ft 453 kts 169°
2026-05-07 17:47 12.81630 -80.24137 37002 ft 453 kts 169°
2026-05-07 17:48 12.75391 -80.23093 36998 ft 453 kts 169°
2026-05-07 17:48 12.69210 -80.22053 36996 ft 452 kts 169°
2026-05-07 17:49 12.63032 -80.21013 36997 ft 452 kts 169°
2026-05-07 17:49 12.56860 -80.19972 36997 ft 452 kts 169°
2026-05-07 17:50 12.50680 -80.18931 36997 ft 452 kts 169°
2026-05-07 17:50 12.44515 -80.17893 36997 ft 452 kts 169°
2026-05-07 17:51 12.38314 -80.16848 36997 ft 452 kts 169°
2026-05-07 17:51 12.32138 -80.15809 36997 ft 452 kts 169°
2026-05-07 17:52 12.25997 -80.14776 36997 ft 452 kts 169°
2026-05-07 17:52 12.19805 -80.13734 36997 ft 451 kts 169°
2026-05-07 17:53 12.13614 -80.12694 36997 ft 451 kts 169°
2026-05-07 17:53 12.07451 -80.11659 36997 ft 451 kts 169°
2026-05-07 17:54 12.01299 -80.10626 36997 ft 451 kts 169°
2026-05-07 17:54 11.95110 -80.09587 36997 ft 451 kts 169°
2026-05-07 17:55 11.88952 -80.08554 36996 ft 451 kts 169°
2026-05-07 17:55 11.82783 -80.07525 36997 ft 451 kts 169°
2026-05-07 17:56 11.76617 -80.06495 36997 ft 451 kts 169°
2026-05-07 17:56 11.70465 -80.05466 36996 ft 450 kts 169°
2026-05-07 17:57 11.65326 -80.04607 36997 ft 450 kts 169°
2026-05-07 17:57 11.58124 -80.03400 36997 ft 450 kts 169°
2026-05-07 17:58 11.51977 -80.02372 36997 ft 450 kts 169°
2026-05-07 17:58 11.45836 -80.01345 36997 ft 450 kts 169°
2026-05-07 17:59 11.39688 -80.00317 36992 ft 450 kts 169°
2026-05-07 17:59 11.33510 -79.99285 36985 ft 450 kts 169°
2026-05-07 18:00 11.27364 -79.98259 36981 ft 450 kts 169°
2026-05-07 18:00 11.21231 -79.97232 36977 ft 450 kts 169°
2026-05-07 18:01 11.15040 -79.96200 36960 ft 450 kts 169°
2026-05-07 18:01 11.08883 -79.95174 36950 ft 450 kts 169°
2026-05-07 18:02 10.99650 -79.93636 36945 ft 450 kts 169°
2026-05-07 18:03 10.93515 -79.92614 36944 ft 450 kts 169°
2026-05-07 18:03 10.87359 -79.91591 36944 ft 450 kts 169°
2026-05-07 18:04 10.81213 -79.90572 36944 ft 450 kts 169°
2026-05-07 18:04 10.75072 -79.89553 36944 ft 450 kts 169°
2026-05-07 18:05 10.68892 -79.88527 36940 ft 449 kts 169°
2026-05-07 18:05 10.62753 -79.87503 36939 ft 448 kts 169°
2026-05-07 18:06 10.56620 -79.86485 36939 ft 448 kts 169°
2026-05-07 18:06 10.50490 -79.85468 36939 ft 448 kts 169°
2026-05-07 18:07 10.44372 -79.84453 36939 ft 448 kts 169°
2026-05-07 18:07 10.38247 -79.83421 36939 ft 448 kts 169°
2026-05-07 18:08 10.32147 -79.82371 36939 ft 448 kts 169°
2026-05-07 18:08 10.26027 -79.81319 36939 ft 448 kts 169°
2026-05-07 18:09 10.19890 -79.80265 36934 ft 447 kts 169°
2026-05-07 18:09 10.13781 -79.79218 36931 ft 447 kts 169°
2026-05-07 18:10 10.07697 -79.78176 36930 ft 447 kts 169°
2026-05-07 18:10 10.01578 -79.77129 36930 ft 447 kts 169°
2026-05-07 18:11 9.95471 -79.76084 36930 ft 447 kts 169°
2026-05-07 18:11 9.89347 -79.75037 36929 ft 446 kts 169°
2026-05-07 18:12 9.83209 -79.73993 36929 ft 447 kts 169°
2026-05-07 18:12 9.77114 -79.72955 36928 ft 447 kts 169°
2026-05-07 18:13 9.71029 -79.71915 36927 ft 446 kts 169°
2026-05-07 18:13 9.64906 -79.70869 36929 ft 446 kts 169°
2026-05-07 18:14 9.58817 -79.69830 36930 ft 446 kts 169°
2026-05-07 18:14 9.52741 -79.68793 36930 ft 445 kts 169°
2026-05-07 18:15 9.46657 -79.67755 36930 ft 445 kts 169°
2026-05-07 18:15 9.40570 -79.66717 36930 ft 445 kts 169°
2026-05-07 18:16 9.34479 -79.65678 36930 ft 445 kts 169°
2026-05-07 18:16 9.28385 -79.64637 36965 ft 445 kts 169°
2026-05-07 18:17 9.22319 -79.63596 36940 ft 445 kts 170°
2026-05-07 18:17 9.16230 -79.62559 36924 ft 445 kts 170°
2026-05-07 18:18 9.10170 -79.61530 36918 ft 444 kts 170°
2026-05-07 18:18 9.04071 -79.60493 36916 ft 444 kts 170°
2026-05-07 18:19 8.98023 -79.59465 36916 ft 444 kts 170°
2026-05-07 18:19 8.91935 -79.58430 36913 ft 444 kts 170°
2026-05-07 18:20 8.85882 -79.57403 36900 ft 444 kts 170°
2026-05-07 18:20 8.79772 -79.56517 36892 ft 444 kts 174°
2026-05-07 18:21 8.73643 -79.56319 36890 ft 444 kts 181°
2026-05-07 18:21 8.67465 -79.56503 36891 ft 444 kts 182°
2026-05-07 18:22 8.61303 -79.56701 36890 ft 444 kts 182°
2026-05-07 18:22 8.55185 -79.56889 36890 ft 444 kts 183°
2026-05-07 18:23 8.49015 -79.57077 36889 ft 444 kts 183°
2026-05-07 18:23 8.42896 -79.57261 36889 ft 444 kts 183°
2026-05-07 18:24 8.36735 -79.57444 36889 ft 444 kts 183°
2026-05-07 18:24 8.30579 -79.57628 36902 ft 444 kts 182°
2026-05-07 18:25 8.24441 -79.57803 36914 ft 444 kts 184°
2026-05-07 18:25 8.18286 -79.57995 36959 ft 444 kts 182°
2026-05-07 18:26 8.12124 -79.58171 36927 ft 444 kts 183°
2026-05-07 18:26 8.05995 -79.58353 36917 ft 444 kts 182°
2026-05-07 18:27 7.99835 -79.58536 36914 ft 443 kts 182°
2026-05-07 18:27 7.93676 -79.58719 36914 ft 443 kts 182°
2026-05-07 18:28 7.87568 -79.58900 36914 ft 443 kts 182°
2026-05-07 18:28 7.81417 -79.59081 36914 ft 443 kts 182°
2026-05-07 18:29 7.75268 -79.59262 36914 ft 443 kts 182°
2026-05-07 18:29 7.69143 -79.59447 36914 ft 444 kts 182°
2026-05-07 18:30 7.62977 -79.59629 36914 ft 443 kts 182°
2026-05-07 18:30 7.56851 -79.59808 36914 ft 443 kts 182°
2026-05-07 18:31 7.50715 -79.59988 36914 ft 443 kts 182°
2026-05-07 18:31 7.44579 -79.60169 36914 ft 443 kts 182°
2026-05-07 18:32 7.38434 -79.60350 36914 ft 444 kts 182°
2026-05-07 18:32 7.32261 -79.60532 36914 ft 443 kts 182°
2026-05-07 18:33 7.26165 -79.60711 36914 ft 443 kts 182°
2026-05-07 18:33 7.19998 -79.60888 36914 ft 443 kts 182°
2026-05-07 18:34 7.13873 -79.61082 36944 ft 443 kts 182°
2026-05-07 18:34 7.07741 -79.61243 36920 ft 443 kts 181°
2026-05-07 18:35 7.01619 -79.61405 36915 ft 443 kts 181°
2026-05-07 18:35 6.95485 -79.61575 36914 ft 443 kts 181°
2026-05-07 18:36 6.89319 -79.61749 36914 ft 443 kts 181°
2026-05-07 18:36 6.83197 -79.61921 36914 ft 442 kts 181°
2026-05-07 18:37 6.77093 -79.62118 36968 ft 442 kts 182°
2026-05-07 18:37 6.70949 -79.62289 36935 ft 442 kts 182°
2026-05-07 18:38 6.64837 -79.62451 36924 ft 442 kts 182°
2026-05-07 18:38 6.58735 -79.62620 36916 ft 442 kts 182°
2026-05-07 18:39 6.52589 -79.62793 36914 ft 442 kts 182°
2026-05-07 18:39 6.47523 -79.62936 36914 ft 442 kts 182°
2026-05-07 18:40 6.40377 -79.63138 36914 ft 441 kts 182°
2026-05-07 18:40 6.34273 -79.63311 36914 ft 441 kts 182°
2026-05-07 18:41 6.28167 -79.63483 36914 ft 441 kts 182°
2026-05-07 18:41 6.22040 -79.63659 36912 ft 441 kts 182°
2026-05-07 18:42 6.15937 -79.63832 36901 ft 441 kts 181°
2026-05-07 18:42 6.09795 -79.64006 36902 ft 442 kts 182°
2026-05-07 18:43 6.03675 -79.64173 36896 ft 442 kts 181°
2026-05-07 18:43 5.97584 -79.64346 36891 ft 441 kts 181°
2026-05-07 18:44 5.91444 -79.64520 36889 ft 441 kts 181°
2026-05-07 18:44 5.85338 -79.64693 36889 ft 441 kts 181°
2026-05-07 18:45 5.79231 -79.64865 36889 ft 441 kts 181°
2026-05-07 18:45 5.73132 -79.65037 36891 ft 441 kts 181°
2026-05-07 18:46 5.67038 -79.65209 36889 ft 441 kts 181°
2026-05-07 18:46 5.60898 -79.65380 36889 ft 441 kts 181°
2026-05-07 18:47 5.54791 -79.65552 36889 ft 441 kts 182°
2026-05-07 18:47 5.48696 -79.65725 36889 ft 441 kts 182°
2026-05-07 18:48 5.43608 -79.65869 36889 ft 440 kts 182°
2026-05-07 18:48 5.36480 -79.66070 36889 ft 440 kts 182°
2026-05-07 18:49 5.30383 -79.66241 36889 ft 440 kts 182°
2026-05-07 18:49 5.24299 -79.66412 36889 ft 440 kts 182°
2026-05-07 18:50 5.18204 -79.66585 36888 ft 440 kts 182°
2026-05-07 18:50 5.12108 -79.66814 36889 ft 440 kts 182°
2026-05-07 18:51 5.05988 -79.67095 36889 ft 440 kts 182°
2026-05-07 18:51 4.99903 -79.67371 36889 ft 440 kts 182°
2026-05-07 18:52 4.93832 -79.67645 36889 ft 439 kts 182°
2026-05-07 18:52 4.87757 -79.67916 36889 ft 439 kts 182°
2026-05-07 18:53 4.81640 -79.68188 36889 ft 439 kts 182°
2026-05-07 18:53 4.75570 -79.68459 36889 ft 439 kts 182°
2026-05-07 18:54 4.69476 -79.68729 36890 ft 440 kts 182°
2026-05-07 18:54 4.63410 -79.68999 36890 ft 440 kts 183°
2026-05-07 18:55 4.57301 -79.69271 36909 ft 440 kts 183°
2026-05-07 18:55 4.51229 -79.69543 36927 ft 440 kts 183°
2026-05-07 18:56 4.45150 -79.69815 36936 ft 440 kts 183°
2026-05-07 18:56 4.39074 -79.70087 36940 ft 440 kts 183°
2026-05-07 18:57 4.32985 -79.70358 36942 ft 439 kts 183°
2026-05-07 18:57 4.26881 -79.70630 36942 ft 439 kts 183°
2026-05-07 18:58 4.20825 -79.70897 36941 ft 439 kts 183°
2026-05-07 18:58 4.14770 -79.71169 36941 ft 438 kts 183°
2026-05-07 18:59 4.08688 -79.71444 36941 ft 437 kts 183°
2026-05-07 18:59 4.02617 -79.71715 36942 ft 437 kts 183°
2026-05-07 19:00 3.96564 -79.71983 36942 ft 437 kts 182°
2026-05-07 19:00 3.90505 -79.72253 36942 ft 438 kts 182°
2026-05-07 19:01 3.84475 -79.72513 36944 ft 437 kts 184°
2026-05-07 19:01 3.78397 -79.72790 36942 ft 438 kts 184°
2026-05-07 19:02 3.72351 -79.73061 36940 ft 438 kts 184°
2026-05-07 19:02 3.66318 -79.73341 36974 ft 437 kts 182°
2026-05-07 19:03 3.60235 -79.73621 36938 ft 437 kts 182°
2026-05-07 19:03 3.54196 -79.73878 36921 ft 437 kts 182°
2026-05-07 19:04 3.48160 -79.74143 36917 ft 437 kts 182°
2026-05-07 19:04 3.42112 -79.74410 36916 ft 437 kts 182°
2026-05-07 19:05 3.36082 -79.74678 36916 ft 437 kts 182°
2026-05-07 19:05 3.30001 -79.74948 36916 ft 437 kts 182°
2026-05-07 19:06 3.23976 -79.75217 36916 ft 437 kts 182°
2026-05-07 19:06 3.14884 -79.75620 36916 ft 438 kts 182°
2026-05-07 19:07 3.08838 -79.75889 36916 ft 438 kts 182°
2026-05-07 19:07 3.02775 -79.76158 36916 ft 438 kts 182°
2026-05-07 19:08 2.96715 -79.76427 36916 ft 438 kts 182°
2026-05-07 19:08 2.90674 -79.76696 36916 ft 438 kts 182°
2026-05-07 19:09 2.84620 -79.76965 36915 ft 437 kts 182°
2026-05-07 19:09 2.78550 -79.77234 36916 ft 437 kts 182°
2026-05-07 19:10 2.72505 -79.77501 36915 ft 437 kts 182°
2026-05-07 19:10 2.66466 -79.77768 36915 ft 436 kts 182°
2026-05-07 19:11 2.60435 -79.78037 36916 ft 436 kts 182°
2026-05-07 19:11 2.54391 -79.78307 36916 ft 436 kts 182°
2026-05-07 19:12 2.48373 -79.78574 36916 ft 436 kts 182°
2026-05-07 19:12 2.42302 -79.78844 36916 ft 436 kts 182°
2026-05-07 19:13 2.36280 -79.79111 36915 ft 435 kts 182°
2026-05-07 19:13 2.30265 -79.79378 36916 ft 435 kts 182°
2026-05-07 19:14 2.24264 -79.79645 36915 ft 435 kts 182°
2026-05-07 19:14 2.18202 -79.79916 36916 ft 435 kts 182°
2026-05-07 19:15 2.12187 -79.80182 36916 ft 435 kts 182°
2026-05-07 19:15 2.06165 -79.80448 36916 ft 435 kts 182°
2026-05-07 19:16 2.00145 -79.80715 36916 ft 435 kts 182°
2026-05-07 19:16 1.94121 -79.80982 36916 ft 435 kts 182°
2026-05-07 19:17 1.88088 -79.81250 36915 ft 435 kts 182°
2026-05-07 19:17 1.82053 -79.81517 36915 ft 435 kts 182°
2026-05-07 19:18 1.76006 -79.81785 36916 ft 435 kts 182°
2026-05-07 19:18 1.70003 -79.82051 36919 ft 435 kts 183°
2026-05-07 19:19 1.63955 -79.82312 36917 ft 436 kts 183°
2026-05-07 19:19 1.57914 -79.82587 36916 ft 437 kts 183°
2026-05-07 19:20 1.51889 -79.82858 36916 ft 437 kts 183°
2026-05-07 19:20 1.45820 -79.83126 36916 ft 437 kts 183°
2026-05-07 19:21 1.39751 -79.83365 36916 ft 437 kts 181°
2026-05-07 19:21 1.33714 -79.83418 36916 ft 437 kts 181°
2026-05-07 19:22 1.27626 -79.83456 36916 ft 437 kts 181°
2026-05-07 19:22 1.21595 -79.83504 36916 ft 437 kts 181°
2026-05-07 19:23 1.15562 -79.83559 36914 ft 437 kts 180°
2026-05-07 19:23 1.09498 -79.83620 36914 ft 436 kts 180°
2026-05-07 19:24 1.03474 -79.83670 36915 ft 435 kts 180°
2026-05-07 19:24 0.97438 -79.83723 36915 ft 435 kts 180°
2026-05-07 19:25 0.91391 -79.83780 36915 ft 434 kts 180°
2026-05-07 19:25 0.85377 -79.83836 36915 ft 434 kts 180°
2026-05-07 19:26 0.79361 -79.83894 36916 ft 434 kts 180°
2026-05-07 19:26 0.73352 -79.83949 36913 ft 434 kts 180°
2026-05-07 19:27 0.67341 -79.84005 36915 ft 434 kts 180°
2026-05-07 19:27 0.61317 -79.84063 36915 ft 434 kts 180°
2026-05-07 19:28 0.55329 -79.84120 36915 ft 433 kts 180°
2026-05-07 19:28 0.49321 -79.84177 36917 ft 433 kts 180°
2026-05-07 19:29 0.43311 -79.84238 36951 ft 433 kts 180°
2026-05-07 19:29 0.37318 -79.84293 36924 ft 433 kts 180°
2026-05-07 19:30 0.31299 -79.84350 36917 ft 433 kts 180°
2026-05-07 19:30 0.25305 -79.84406 36916 ft 433 kts 180°
2026-05-07 19:31 0.19300 -79.84464 36916 ft 433 kts 180°
2026-05-07 19:31 0.13282 -79.84520 36916 ft 433 kts 180°
2026-05-07 19:32 0.07313 -79.84576 36916 ft 433 kts 180°
2026-05-07 19:32 0.01318 -79.84633 36916 ft 433 kts 180°
2026-05-07 19:33 -0.04687 -79.84690 36916 ft 433 kts 180°
2026-05-07 19:33 -0.10706 -79.84747 36915 ft 433 kts 180°
2026-05-07 19:34 -0.16696 -79.84804 36915 ft 433 kts 180°
2026-05-07 19:34 -0.22697 -79.84860 36895 ft 432 kts 180°
2026-05-07 19:35 -0.28676 -79.84917 36874 ft 433 kts 180°
2026-05-07 19:35 -0.34680 -79.84975 36866 ft 433 kts 180°
2026-05-07 19:36 -0.40702 -79.85031 36862 ft 433 kts 180°
2026-05-07 19:36 -0.46696 -79.85088 36861 ft 433 kts 180°
2026-05-07 19:37 -0.52674 -79.85144 36861 ft 433 kts 180°
2026-05-07 19:37 -0.58678 -79.85201 36861 ft 433 kts 180°
2026-05-07 19:38 -0.64703 -79.85258 36861 ft 433 kts 180°
2026-05-07 19:38 -0.70676 -79.85314 36861 ft 433 kts 180°
2026-05-07 19:39 -0.76668 -79.85371 36862 ft 432 kts 180°
2026-05-07 19:39 -0.81678 -79.85415 36861 ft 431 kts 180°
2026-05-07 19:40 -0.88618 -79.85475 36863 ft 431 kts 181°
2026-05-07 19:40 -0.94612 -79.85539 36861 ft 432 kts 181°
2026-05-07 19:41 -1.00617 -79.85600 36861 ft 432 kts 181°
2026-05-07 19:41 -1.06592 -79.85658 36861 ft 432 kts 181°
2026-05-07 19:42 -1.12577 -79.85715 36861 ft 432 kts 181°
2026-05-07 19:42 -1.18581 -79.85771 36861 ft 432 kts 181°
2026-05-07 19:43 -1.24549 -79.85828 36861 ft 432 kts 181°
2026-05-07 19:43 -1.30550 -79.85883 36861 ft 431 kts 182°
2026-05-07 19:44 -1.36494 -79.85940 36861 ft 431 kts 182°
2026-05-07 19:44 -1.42486 -79.85997 36861 ft 431 kts 182°
2026-05-07 19:45 -1.48480 -79.86053 36861 ft 431 kts 182°
2026-05-07 19:45 -1.54460 -79.86111 36861 ft 431 kts 182°
2026-05-07 19:46 -1.60435 -79.86168 36861 ft 431 kts 182°
2026-05-07 19:46 -1.66393 -79.86224 36861 ft 430 kts 182°
2026-05-07 19:47 -1.72362 -79.86282 36861 ft 430 kts 182°
2026-05-07 19:47 -1.78338 -79.86337 36861 ft 431 kts 182°
2026-05-07 19:48 -1.84330 -79.86394 36861 ft 431 kts 182°
2026-05-07 19:48 -1.90276 -79.86451 36860 ft 431 kts 182°
2026-05-07 19:49 -1.96268 -79.86508 36861 ft 431 kts 182°
2026-05-07 19:49 -2.02259 -79.86565 36861 ft 431 kts 182°
2026-05-07 19:50 -2.08206 -79.86621 36861 ft 431 kts 182°
2026-05-07 19:50 -2.14203 -79.86453 36861 ft 431 kts 176°
2026-05-07 19:51 -2.20095 -79.85755 36861 ft 430 kts 174°
2026-05-07 19:51 -2.26035 -79.84981 36861 ft 429 kts 174°
2026-05-07 19:52 -2.31928 -79.84214 36860 ft 429 kts 175°
2026-05-07 19:52 -2.37808 -79.83463 36860 ft 429 kts 175°
2026-05-07 19:53 -2.43708 -79.82708 36860 ft 428 kts 175°
2026-05-07 19:53 -2.49619 -79.81951 36861 ft 428 kts 175°
2026-05-07 19:54 -2.55505 -79.81195 36868 ft 428 kts 175°
2026-05-07 19:54 -2.61362 -79.80447 36862 ft 428 kts 175°
2026-05-07 19:55 -2.67235 -79.79696 36861 ft 428 kts 175°
2026-05-07 19:55 -2.73139 -79.78939 36861 ft 428 kts 175°
2026-05-07 19:56 -2.79023 -79.78183 36860 ft 429 kts 175°
2026-05-07 19:56 -2.84901 -79.77432 36861 ft 429 kts 175°
2026-05-07 19:57 -2.90820 -79.76676 36868 ft 429 kts 175°
2026-05-07 19:57 -2.96712 -79.75922 36878 ft 429 kts 175°
2026-05-07 19:58 -3.02623 -79.75166 36884 ft 429 kts 175°
2026-05-07 19:58 -3.08518 -79.74413 36886 ft 429 kts 175°
2026-05-07 19:59 -3.14418 -79.73659 36887 ft 429 kts 175°
2026-05-07 19:59 -3.20321 -79.72904 36887 ft 429 kts 175°
2026-05-07 20:00 -3.26218 -79.72149 36888 ft 429 kts 175°
2026-05-07 20:00 -3.32105 -79.71394 36887 ft 428 kts 175°
2026-05-07 20:01 -3.37963 -79.70645 36887 ft 428 kts 175°
2026-05-07 20:01 -3.43865 -79.69889 36887 ft 428 kts 175°
2026-05-07 20:02 -3.49737 -79.69138 36887 ft 428 kts 175°
2026-05-07 20:02 -3.55648 -79.68380 36887 ft 428 kts 175°
2026-05-07 20:03 -3.61530 -79.67626 36887 ft 428 kts 175°
2026-05-07 20:03 -3.67412 -79.66872 36887 ft 428 kts 175°
2026-05-07 20:04 -3.73291 -79.66119 36887 ft 428 kts 175°
2026-05-07 20:04 -3.79210 -79.65356 36896 ft 427 kts 175°
2026-05-07 20:05 -3.85075 -79.64606 36953 ft 427 kts 175°
2026-05-07 20:05 -3.90908 -79.63859 37018 ft 426 kts 175°
2026-05-07 20:06 -3.96782 -79.63106 37054 ft 426 kts 175°
2026-05-07 20:06 -4.02657 -79.62352 37069 ft 426 kts 175°
2026-05-07 20:07 -4.08502 -79.61602 37075 ft 425 kts 175°
2026-05-07 20:07 -4.14362 -79.60851 37077 ft 425 kts 175°
2026-05-07 20:08 -4.20178 -79.60107 37078 ft 425 kts 175°
2026-05-07 20:08 -4.26066 -79.59351 37077 ft 425 kts 175°
2026-05-07 20:09 -4.31908 -79.58599 37078 ft 425 kts 176°
2026-05-07 20:10 -4.40654 -79.57476 37078 ft 426 kts 176°
2026-05-07 20:10 -4.46501 -79.56724 37083 ft 425 kts 176°
2026-05-07 20:11 -4.52380 -79.55970 37079 ft 425 kts 176°
2026-05-07 20:11 -4.58231 -79.55243 37078 ft 425 kts 176°
2026-05-07 20:12 -4.64076 -79.54517 37078 ft 425 kts 176°
2026-05-07 20:12 -4.69923 -79.53789 37078 ft 425 kts 176°
2026-05-07 20:13 -4.75745 -79.53062 37078 ft 425 kts 176°
2026-05-07 20:13 -4.81606 -79.52331 37078 ft 425 kts 176°
2026-05-07 20:14 -4.87484 -79.51598 37078 ft 425 kts 176°
2026-05-07 20:14 -4.93306 -79.50871 37078 ft 425 kts 176°
2026-05-07 20:15 -4.99153 -79.50140 37073 ft 425 kts 176°
2026-05-07 20:15 -5.05013 -79.49408 37062 ft 425 kts 176°
2026-05-07 20:16 -5.10876 -79.48676 37036 ft 425 kts 176°
2026-05-07 20:16 -5.16685 -79.47952 36965 ft 425 kts 176°
2026-05-07 20:17 -5.22568 -79.47218 36907 ft 425 kts 176°
2026-05-07 20:17 -5.28386 -79.46491 36878 ft 426 kts 176°
2026-05-07 20:18 -5.34267 -79.45756 36867 ft 427 kts 176°
2026-05-07 20:18 -5.40150 -79.45020 36862 ft 427 kts 176°
2026-05-07 20:19 -5.45988 -79.44290 36861 ft 427 kts 176°
2026-05-07 20:19 -5.51894 -79.43552 36861 ft 427 kts 176°
2026-05-07 20:20 -5.57756 -79.42817 36863 ft 427 kts 176°
2026-05-07 20:20 -5.63643 -79.42080 36875 ft 427 kts 176°
2026-05-07 20:21 -5.69514 -79.41344 36882 ft 427 kts 176°
2026-05-07 20:21 -5.75365 -79.40612 36886 ft 427 kts 176°
2026-05-07 20:22 -5.81255 -79.39874 36887 ft 426 kts 176°
2026-05-07 20:22 -5.87118 -79.39140 36887 ft 426 kts 176°
2026-05-07 20:23 -5.92974 -79.38406 36887 ft 426 kts 176°
2026-05-07 20:23 -5.98818 -79.37674 36887 ft 426 kts 176°
2026-05-07 20:24 -6.04688 -79.36938 36887 ft 426 kts 176°
2026-05-07 20:24 -6.10558 -79.36202 36887 ft 426 kts 176°
2026-05-07 20:25 -6.16397 -79.35472 36887 ft 426 kts 176°
2026-05-07 20:25 -6.22259 -79.34734 36886 ft 426 kts 176°
2026-05-07 20:26 -6.28115 -79.33971 36887 ft 426 kts 176°
2026-05-07 20:26 -6.33977 -79.33221 36887 ft 427 kts 176°
2026-05-07 20:27 -6.39860 -79.32481 36896 ft 427 kts 176°
2026-05-07 20:27 -6.45734 -79.31739 36889 ft 427 kts 176°
2026-05-07 20:28 -6.51603 -79.31000 36888 ft 427 kts 176°
2026-05-07 20:28 -6.57464 -79.30263 36887 ft 427 kts 176°
2026-05-07 20:29 -6.63350 -79.29524 36887 ft 427 kts 176°
2026-05-07 20:29 -6.69223 -79.28785 36887 ft 427 kts 176°
2026-05-07 20:30 -6.75077 -79.28050 36887 ft 427 kts 176°
2026-05-07 20:30 -6.80958 -79.27310 36887 ft 428 kts 176°
2026-05-07 20:31 -6.86852 -79.26576 36897 ft 428 kts 176°
2026-05-07 20:31 -6.92725 -79.25837 36889 ft 428 kts 176°
2026-05-07 20:32 -6.98623 -79.25095 36888 ft 428 kts 176°
2026-05-07 20:32 -7.04481 -79.24355 36887 ft 427 kts 176°
2026-05-07 20:33 -7.10379 -79.23614 36887 ft 427 kts 176°
2026-05-07 20:33 -7.16271 -79.22875 36887 ft 427 kts 176°
2026-05-07 20:34 -7.22132 -79.22137 36915 ft 427 kts 176°
2026-05-07 20:34 -7.27995 -79.21399 36998 ft 427 kts 176°
2026-05-07 20:35 -7.33864 -79.20660 37113 ft 426 kts 176°
2026-05-07 20:35 -7.39721 -79.19922 37201 ft 425 kts 176°
2026-05-07 20:36 -7.45579 -79.19183 37186 ft 425 kts 176°
2026-05-07 20:36 -7.51420 -79.18447 37101 ft 425 kts 176°
2026-05-07 20:37 -7.57280 -79.17709 37016 ft 425 kts 176°
2026-05-07 20:37 -7.63105 -79.16974 36972 ft 425 kts 176°
2026-05-07 20:38 -7.68956 -79.16235 36954 ft 425 kts 176°
2026-05-07 20:38 -7.74817 -79.15496 36947 ft 425 kts 176°
2026-05-07 20:39 -7.80685 -79.14757 36944 ft 428 kts 176°
2026-05-07 20:39 -7.86561 -79.14015 36944 ft 429 kts 176°
2026-05-07 20:40 -7.92494 -79.13266 36944 ft 429 kts 176°
2026-05-07 20:40 -7.98362 -79.12525 36944 ft 429 kts 176°
2026-05-07 20:41 -8.04270 -79.11581 36943 ft 431 kts 171°
2026-05-07 20:41 -8.10025 -79.09905 36943 ft 435 kts 163°
2026-05-07 20:42 -8.15581 -79.07448 36944 ft 438 kts 155°
2026-05-07 20:42 -8.20931 -79.04493 36944 ft 439 kts 154°
2026-05-07 20:43 -8.26248 -79.01512 36944 ft 439 kts 154°
2026-05-07 20:43 -8.31582 -78.98534 36944 ft 439 kts 154°
2026-05-07 20:44 -8.36900 -78.95575 36944 ft 439 kts 154°
2026-05-07 20:44 -8.42242 -78.92602 36944 ft 439 kts 154°
2026-05-07 20:45 -8.47571 -78.89637 36944 ft 439 kts 154°
2026-05-07 20:45 -8.52893 -78.86674 36944 ft 439 kts 154°
2026-05-07 20:46 -8.58107 -78.83771 36944 ft 439 kts 154°
2026-05-07 20:46 -8.63455 -78.80791 36943 ft 437 kts 154°
2026-05-07 20:47 -8.68717 -78.77858 36943 ft 433 kts 154°
2026-05-07 20:47 -8.73951 -78.74941 36944 ft 433 kts 154°
2026-05-07 20:48 -8.79248 -78.71997 36963 ft 433 kts 154°
2026-05-07 20:48 -8.84499 -78.69062 36948 ft 432 kts 155°
2026-05-07 20:49 -8.89710 -78.66154 36945 ft 432 kts 155°
2026-05-07 20:49 -8.94963 -78.63222 36944 ft 432 kts 155°
2026-05-07 20:50 -9.00225 -78.60284 36944 ft 432 kts 155°
2026-05-07 20:50 -9.05453 -78.57363 36944 ft 432 kts 155°
2026-05-07 20:51 -9.10670 -78.54448 36944 ft 432 kts 155°
2026-05-07 20:51 -9.15976 -78.51580 36943 ft 431 kts 158°
2026-05-07 20:52 -9.21338 -78.48975 36944 ft 431 kts 158°
2026-05-07 20:52 -9.26756 -78.46358 36943 ft 432 kts 158°
2026-05-07 20:53 -9.32131 -78.43752 36944 ft 432 kts 158°
2026-05-07 20:53 -9.37557 -78.41116 36944 ft 432 kts 158°
2026-05-07 20:54 -9.42949 -78.38493 36944 ft 432 kts 158°
2026-05-07 20:54 -9.48344 -78.35868 36944 ft 432 kts 158°
2026-05-07 20:55 -9.53728 -78.33234 36943 ft 432 kts 158°
2026-05-07 20:55 -9.59137 -78.30576 36944 ft 432 kts 158°
2026-05-07 20:56 -9.64530 -78.27940 36944 ft 432 kts 158°
2026-05-07 20:56 -9.69909 -78.25317 36944 ft 432 kts 158°
2026-05-07 20:57 -9.75316 -78.22678 36944 ft 431 kts 158°
2026-05-07 20:57 -9.80674 -78.20070 36944 ft 432 kts 158°
2026-05-07 20:58 -9.86095 -78.17426 36944 ft 432 kts 158°
2026-05-07 20:58 -9.91483 -78.14797 36944 ft 431 kts 158°
2026-05-07 20:59 -9.96860 -78.12174 36966 ft 431 kts 158°
2026-05-07 20:59 -10.02276 -78.09529 37047 ft 431 kts 158°
2026-05-07 21:00 -10.07636 -78.06911 37147 ft 431 kts 158°
2026-05-07 21:00 -10.13036 -78.04278 36744 ft 429 kts 158°
2026-05-07 21:00 -10.15736 -78.02962 36294 ft 426 kts 158°
2026-05-07 21:01 -10.18389 -78.01668 35768 ft 425 kts 158°
2026-05-07 21:01 -10.21041 -78.00375 35246 ft 423 kts 159°
2026-05-07 21:01 -10.23681 -77.99091 34782 ft 420 kts 158°
2026-05-07 21:01 -10.26299 -77.97809 34212 ft 420 kts 158°
2026-05-07 21:02 -10.28931 -77.96525 33560 ft 422 kts 157°
2026-05-07 21:02 -10.31567 -77.95239 32906 ft 424 kts 158°
2026-05-07 21:02 -10.34203 -77.93951 32292 ft 424 kts 158°
2026-05-07 21:02 -10.36845 -77.92664 31671 ft 423 kts 158°
2026-05-07 21:03 -10.39505 -77.91366 31049 ft 420 kts 158°
2026-05-07 21:03 -10.42113 -77.90092 30425 ft 417 kts 157°
2026-05-07 21:03 -10.44709 -77.88836 29805 ft 413 kts 154°
2026-05-07 21:03 -10.47257 -77.87606 29210 ft 406 kts 153°
2026-05-07 21:04 -10.49755 -77.86369 28595 ft 399 kts 153°
2026-05-07 21:04 -10.52237 -77.85141 27979 ft 392 kts 154°
2026-05-07 21:04 -10.54652 -77.83955 27430 ft 383 kts 154°
2026-05-07 21:04 -10.56993 -77.82809 27069 ft 371 kts 154°
2026-05-07 21:05 -10.59273 -77.81695 26719 ft 360 kts 154°
2026-05-07 21:05 -10.61486 -77.80614 26379 ft 350 kts 154°
2026-05-07 21:05 -10.63637 -77.79562 26053 ft 340 kts 154°
2026-05-07 21:05 -10.65750 -77.78529 25735 ft 330 kts 154°
2026-05-07 21:06 -10.67779 -77.77537 25435 ft 321 kts 154°
2026-05-07 21:06 -10.69757 -77.76569 25145 ft 312 kts 154°
2026-05-07 21:06 -10.71680 -77.75629 24824 ft 305 kts 154°
2026-05-07 21:06 -10.73569 -77.74705 24367 ft 303 kts 154°
2026-05-07 21:07 -10.75468 -77.73777 23847 ft 303 kts 153°
2026-05-07 21:07 -10.77368 -77.72845 23298 ft 306 kts 154°
2026-05-07 21:07 -10.79288 -77.71904 22713 ft 311 kts 154°
2026-05-07 21:07 -10.81210 -77.70963 22311 ft 308 kts 154°
2026-05-07 21:08 -10.83133 -77.70022 21980 ft 303 kts 153°
2026-05-07 21:08 -10.85025 -77.69096 21654 ft 299 kts 153°
2026-05-07 21:08 -10.86894 -77.68180 21332 ft 294 kts 153°
2026-05-07 21:08 -10.88711 -77.67289 21019 ft 290 kts 153°
2026-05-07 21:09 -10.90514 -77.66405 20707 ft 285 kts 153°
2026-05-07 21:09 -10.92284 -77.65537 20377 ft 280 kts 153°
2026-05-07 21:09 -10.94002 -77.64693 20000 ft 276 kts 153°
2026-05-07 21:09 -10.95714 -77.63854 19637 ft 271 kts 153°
2026-05-07 21:10 -10.97402 -77.63025 19279 ft 266 kts 153°
2026-05-07 21:10 -10.99035 -77.62225 18936 ft 262 kts 153°
2026-05-07 21:10 -11.00669 -77.61420 18588 ft 257 kts 152°
2026-05-07 21:10 -11.02249 -77.60641 18228 ft 254 kts 152°
2026-05-07 21:11 -11.03839 -77.59856 17837 ft 252 kts 152°
2026-05-07 21:11 -11.05413 -77.59081 17440 ft 251 kts 153°
2026-05-07 21:11 -11.08516 -77.57555 16650 ft 249 kts 153°
2026-05-07 21:12 -11.10077 -77.56787 16253 ft 248 kts 153°
2026-05-07 21:12 -11.11662 -77.56013 15852 ft 247 kts 153°
2026-05-07 21:12 -11.13215 -77.55256 15463 ft 246 kts 153°
2026-05-07 21:12 -11.14754 -77.54503 15083 ft 245 kts 153°
2026-05-07 21:13 -11.16286 -77.53751 14710 ft 244 kts 154°
2026-05-07 21:13 -11.17794 -77.53011 14348 ft 242 kts 154°
2026-05-07 21:13 -11.19305 -77.52269 13988 ft 241 kts 154°
2026-05-07 21:13 -11.20817 -77.51526 13631 ft 239 kts 154°
2026-05-07 21:14 -11.22312 -77.50790 13276 ft 238 kts 154°
2026-05-07 21:14 -11.23794 -77.50063 12925 ft 236 kts 155°
2026-05-07 21:14 -11.25262 -77.49348 12574 ft 235 kts 155°
2026-05-07 21:14 -11.26732 -77.48656 12247 ft 232 kts 155°
2026-05-07 21:15 -11.28192 -77.47977 11973 ft 228 kts 155°
2026-05-07 21:15 -11.29624 -77.47307 11701 ft 227 kts 155°
2026-05-07 21:15 -11.31055 -77.46634 11428 ft 226 kts 155°
2026-05-07 21:15 -11.32479 -77.45963 11156 ft 225 kts 155°
2026-05-07 21:16 -11.33887 -77.45300 10887 ft 224 kts 155°
2026-05-07 21:16 -11.35309 -77.44630 10614 ft 222 kts 155°
2026-05-07 21:16 -11.36703 -77.43973 10346 ft 220 kts 155°
2026-05-07 21:16 -11.38090 -77.43321 10078 ft 219 kts 155°
2026-05-07 21:17 -11.39452 -77.42679 9815 ft 218 kts 155°
2026-05-07 21:17 -11.40837 -77.42027 9544 ft 217 kts 155°
2026-05-07 21:17 -11.42185 -77.41391 9276 ft 216 kts 155°
2026-05-07 21:17 -11.43538 -77.40753 9005 ft 215 kts 155°
2026-05-07 21:18 -11.44903 -77.40110 8731 ft 214 kts 155°
2026-05-07 21:18 -11.46243 -77.39478 8461 ft 213 kts 155°
2026-05-07 21:18 -11.47574 -77.38851 8194 ft 212 kts 155°
2026-05-07 21:18 -11.48921 -77.38216 7923 ft 211 kts 155°
2026-05-07 21:19 -11.50249 -77.37589 7655 ft 210 kts 155°
2026-05-07 21:19 -11.51559 -77.36971 7392 ft 209 kts 155°
2026-05-07 21:19 -11.52886 -77.36345 7125 ft 209 kts 155°
2026-05-07 21:19 -11.54190 -77.35729 6863 ft 208 kts 155°
2026-05-07 21:20 -11.55511 -77.35106 6597 ft 207 kts 155°
2026-05-07 21:20 -11.56807 -77.34488 6336 ft 206 kts 155°
2026-05-07 21:20 -11.58084 -77.33874 6079 ft 205 kts 155°
2026-05-07 21:20 -11.59375 -77.33256 5820 ft 204 kts 155°
2026-05-07 21:21 -11.60656 -77.32647 5597 ft 202 kts 155°
2026-05-07 21:21 -11.61937 -77.32040 5537 ft 203 kts 155°
2026-05-07 21:21 -11.63219 -77.31434 5429 ft 204 kts 155°
2026-05-07 21:21 -11.64499 -77.30829 5192 ft 203 kts 155°
2026-05-07 21:22 -11.65778 -77.30225 4957 ft 202 kts 155°
2026-05-07 21:22 -11.67052 -77.29623 4724 ft 201 kts 155°
2026-05-07 21:22 -11.68308 -77.29030 4495 ft 200 kts 155°
2026-05-07 21:22 -11.69577 -77.28431 4262 ft 199 kts 155°
2026-05-07 21:23 -11.70822 -77.27844 4034 ft 199 kts 155°
2026-05-07 21:23 -11.72076 -77.27252 3804 ft 198 kts 155°
2026-05-07 21:23 -11.73338 -77.26657 3573 ft 197 kts 155°
2026-05-07 21:23 -11.74567 -77.26077 3348 ft 197 kts 155°
2026-05-07 21:24 -11.75809 -77.25494 3120 ft 196 kts 155°
2026-05-07 21:24 -11.77049 -77.24914 2930 ft 194 kts 155°
2026-05-07 21:24 -11.78284 -77.24333 2887 ft 197 kts 155°
2026-05-07 21:24 -11.79535 -77.23744 2838 ft 197 kts 155°
2026-05-07 21:25 -11.80777 -77.23152 2790 ft 197 kts 154°
2026-05-07 21:25 -11.82015 -77.22545 2730 ft 197 kts 154°
2026-05-07 21:25 -11.83236 -77.21940 2602 ft 197 kts 153°
2026-05-07 21:25 -11.84474 -77.21326 2466 ft 197 kts 153°
2026-05-07 21:26 -11.85708 -77.20715 2298 ft 196 kts 153°
2026-05-07 21:26 -11.86942 -77.20114 2135 ft 194 kts 154°
2026-05-07 21:26 -11.88171 -77.19531 2080 ft 197 kts 154°
2026-05-07 21:26 -11.89405 -77.18936 1900 ft 194 kts 154°
2026-05-07 21:27 -11.90619 -77.18341 1835 ft 194 kts 154°
2026-05-07 21:27 -11.91834 -77.17739 1832 ft 194 kts 154°
2026-05-07 21:27 -11.93050 -77.17136 1734 ft 193 kts 154°
2026-05-07 21:27 -11.94265 -77.16536 1613 ft 194 kts 154°
2026-05-07 21:28 -11.95434 -77.15960 1456 ft 180 kts 154°
2026-05-07 21:28 -11.96503 -77.15433 1246 ft 164 kts 154°
2026-05-07 21:28 -11.97497 -77.14942 993 ft 153 kts 154°
2026-05-07 21:28 -11.98415 -77.14489 768 ft 142 kts 154°
2026-05-07 21:29 -11.99272 -77.14066 563 ft 131 kts 154°
2026-05-07 21:29 -12.00078 -77.13668 397 ft 128 kts 153°
2026-05-07 21:29 -12.00881 -77.13277 221 ft 128 kts 153°
2026-05-07 21:29 -12.01672 -77.12887 120 ft 120 kts 154°
2026-05-07 21:30 -12.02266 -77.12591 116 ft 56 kts 154°
2026-05-07 21:30 -12.02514 -77.12466 116 ft 32 kts 154°
2026-05-07 21:30 -12.02657 -77.12392 116 ft 17 kts 140°
2026-05-07 21:30 -12.02705 -77.12324 116 ft 9 kts 125°
2026-05-07 21:31 -12.02739 -77.12275 116 ft 3 kts 126°
2026-05-07 21:31 -12.02761 -77.12246 116 ft 6 kts 130°
2026-05-07 21:31 -12.02796 -77.12200 116 ft 9 kts 125°
2026-05-07 21:31 -12.02836 -77.12140 116 ft 10 kts 134°
2026-05-07 21:32 -12.02907 -77.12095 116 ft 13 kts 155°
2026-05-07 21:32 -12.02946 -77.12048 116 ft 7 kts 71°
2026-05-07 21:32 -12.02907 -77.12022 116 ft 8 kts 347°
2026-05-07 21:32 -12.02850 -77.12046 116 ft 10 kts 335°
2026-05-07 21:33 -12.02782 -77.12079 116 ft 11 kts 334°
2026-05-07 21:33 -12.02702 -77.12116 116 ft 13 kts 336°
2026-05-07 21:33 -12.02619 -77.12155 116 ft 10 kts
2026-05-07 21:33 -12.02577 -77.12119 116 ft 6 kts 61°
2026-05-07 21:34 -12.02553 -77.12071 116 ft 8 kts 64°
2026-05-07 21:34 -12.02500 -77.12045 116 ft 9 kts 347°
2026-05-07 21:34 -12.02465 -77.12050 116 ft 4 kts 30°
2026-05-07 21:34 -12.02448 -77.12028 116 ft 3 kts 64°
2026-05-07 21:35 -12.02439 -77.12009 116 ft 0 kts 63°